Home   Weather   Montego Bay   Past weeks

Flag for Jamaica Past Weather in Montego Bay, Jamaica — Yesterday and Last 2 Weeks

Now
77 °F

Passing clouds.


Feels Like: 78 °F
Forecast: 76 / 87 °F
Wind: 2 mph from North

Location: Montego Bay / Sangster

Current Time: May 23, 2017 at 2:02:57 am

Latest Report: May 23, 2017 at 1:00 am


Visibility: N/A

Pressure: 29.95 "Hg

Humidity: 94%

Dew Point: 75 °F

Location of Montego BayLocation

Past Weather in Montego Bay — Graph

°F

Montego Bay Temperature Yesterday

Maximum temperature yesterday: 88 °F (at 11:00 am)
Minimum temperature yesterday: 77 °F (at 1:00 am)
Average temperature yesterday: 80 °F

High & Low Weather Summary for the Past Weeks

 TemperatureHumidityPressure
High91 °F (May 15, 2:00 pm)100% (May 16, 6:00 am)30.01 "Hg (May 16, 6:00 am)
Low73 °F (May 12, 3:00 am)55% (May 12, 8:00 am)29.80 "Hg (May 15, 3:00 pm)
Average81 °F79%29.91 "Hg
* Reported May 8 12:00 am — May 23 12:00 am, Montego Bay. Weather by CustomWeather, © 2017

Note: Actual official high and low records may vary slightly from our data, if they occured in-between our weather recording intervals... More about our weather records

Advertising

Montego Bay Weather History for the Previous 24 Hours

Scroll right to see more
 ConditionsComfort  
Time TempWeatherWind HumidityBarometerVisibility
12:00 am
Tue, May 23
79 °FPassing clouds.2 mph89%29.95 "HgN/A
11:00 pm
Mon, May 22
79 °FPassing clouds.2 mph89%29.98 "HgN/A
10:00 pm79 °FPassing clouds.2 mph89%29.98 "HgN/A
9:00 pm79 °FPassing clouds.2 mph89%29.98 "HgN/A
8:00 pm79 °FPassing clouds.2 mph89%29.98 "HgN/A
7:00 pm79 °FSprinkles. Passing clouds.2 mph94%29.95 "HgN/A
6:00 pm79 °FBroken clouds.2 mph94%29.95 "HgN/A
5:14 pm77 °FBroken clouds.1 mph94%29.95 "HgN/A
5:00 pm77 °FThunderstorms. Broken clouds.1 mph94%29.95 "HgN/A
4:00 pm77 °FThunderstorms. Broken clouds.8 mph89%29.95 "HgN/A
3:27 pm77 °FThunderstorms. Broken clouds.2 mph83%29.92 "HgN/A
3:00 pm81 °FPartly sunny.8 mph74%29.95 "HgN/A
2:00 pm86 °FPassing clouds.15 mph75%29.92 "HgN/A
1:00 pm86 °FPassing clouds.14 mph75%29.95 "HgN/A
12:00 pm86 °FPassing clouds.15 mph75%29.98 "HgN/A
11:00 am88 °FPassing clouds.13 mph70%29.98 "HgN/A
10:00 am86 °FPassing clouds.12 mph70%30.01 "HgN/A
9:00 am84 °FScattered clouds.7 mph74%30.01 "HgN/A
8:00 am82 °FPassing clouds.7 mph79%30.01 "HgN/A
7:00 am81 °FPassing clouds.3 mph79%29.98 "HgN/A
6:00 am79 °FScattered clouds.1 mph84%29.98 "HgN/A
5:00 am79 °FPassing clouds.2 mph79%29.95 "HgN/A
4:00 am77 °FPassing clouds.2 mph83%29.95 "HgN/A
3:00 am77 °FPassing clouds.2 mph83%29.95 "HgN/A
2:00 am79 °FPassing clouds.2 mph79%29.95 "HgN/A
Weather by CustomWeather, © 2017

See weather overviewHow to use our weather pages